Gilgo Beach, New York, United States
Lat: 40.62N, Lon: 73.4W
Wx Zone: NYZ080
Local Info
Past Weather Observations for Today

NOTE: This archive is for the closest National Weather Service station to Gilgo Beach. Information may differ from the station used for current weather conditions.

Click here for Long-term Archive

Time Weather Temperature Dewpoint Humidity Pressure Winds Precip Visibility
22:53
Partly Cloudy
34°F / 1°C 10°F / -12°C 38% 30.01 in
(1016 mb)
NW 10.4 mph
(NW 17 kph)
- 10SM
21:53
Clear
36°F / 2°C 9°F / -13°C 32% 29.98 in
(1015 mb)
WNW 12.7 mph
(WNW 20 kph)
- 10SM
20:53
Clear
37°F / 3°C 9°F / -13°C 30% 29.95 in
(1014 mb)
NW 16.1 mph
(NW 26 kph)
- 10SM
19:53
Clear
41°F / 5°C 10°F / -12°C 28% 29.95 in
(1014 mb)
W 16.1 mph
(W 26 kph)
- 10SM
18:53
Partly Cloudy
43°F / 6°C 18°F / -8°C 36% 29.92 in
(1013 mb)
NW 10.4 mph
(NW 17 kph)
- 10SM
17:53
Clear
43°F / 6°C 19°F / -7°C 39% 29.89 in
(1012 mb)
W 12.7 mph
(W 20 kph)
- 10SM
16:53
Clear
45°F / 7°C 21°F / -6°C 39% 29.86 in
(1011 mb)
W 15 mph
(W 24 kph)
- 10SM
15:53
Clear
46°F / 8°C 23°F / -5°C 40% 29.86 in
(1011 mb)
W 19.6 mph
(W 32 kph)
- 10SM
14:53
Clear
46°F / 8°C 23°F / -5°C 40% 29.83 in
(1010 mb)
SSW 18.4 mph
(SSW 30 kph)
- 10SM
13:53
Clear
46°F / 8°C 23°F / -5°C 40% 29.86 in
(1011 mb)
SSW 16.1 mph
(SSW 26 kph)
- 10SM
12:53
Partly Cloudy
45°F / 7°C 21°F / -6°C 39% 29.86 in
(1011 mb)
W 17.3 mph
(W 28 kph)
- 10SM
11:53
Clear
46°F / 8°C 21°F / -6°C 37% 29.89 in
(1012 mb)
W 15 mph
(W 24 kph)
- 10SM
10:53
Partly Cloudy
46°F / 8°C 23°F / -5°C 40% 29.92 in
(1013 mb)
W 18.4 mph
(W 30 kph)
- 10SM
09:53
Partly Cloudy
45°F / 7°C 21°F / -6°C 39% 29.95 in
(1014 mb)
SSW 9.2 mph
(SSW 15 kph)
- 10SM
08:53
Clear
41°F / 5°C 19°F / -7°C 42% 29.95 in
(1014 mb)
SSW 15 mph
(SSW 24 kph)
- 10SM
07:53
Partly Cloudy
37°F / 3°C 19°F / -7°C 48% 29.95 in
(1014 mb)
SSW 9.2 mph
(SSW 15 kph)
- 10SM
06:53
Overcast
37°F / 3°C 18°F / -8°C 45% 29.98 in
(1015 mb)
SSW 10.4 mph
(SSW 17 kph)
- 10SM
05:53
Overcast
37°F / 3°C 18°F / -8°C 45% 29.98 in
(1015 mb)
SSW 10.4 mph
(SSW 17 kph)
- 10SM
04:53
Overcast
37°F / 3°C 19°F / -7°C 48% 30.01 in
(1016 mb)
SSW 6.9 mph
(SSW 11 kph)
- 10SM
03:53
Overcast
37°F / 3°C 19°F / -7°C 48% 30.01 in
(1016 mb)
SSW 8.1 mph
(SSW 13 kph)
- 10SM
01:53
Overcast
39°F / 4°C 19°F / -7°C 45% 30.04 in
(1017 mb)
SW 16.1 mph
(SW 26 kph)
- 10SM
00:53
Overcast
37°F / 3°C 19°F / -7°C 48% 30.06 in
(1018 mb)
SW 12.7 mph
(SW 20 kph)
- 10SM
Time Weather Temperature Dewpoint Humidity Pressure Winds Precip Visibility


Weather for websites

WeatherForYou.com, LLC is not responsible for any damages or problems caused by this service. Current weather conditions are obtained from the closest station including government and personal stations which may have varying degrees of accuracy. Weather forecasts are derived from the NOAA NDFD. Like all things, this site belongs to Jesus Christ... He just trusts me to maintain it. If you have any questions or comments email webmaster@weatherforyou.com

Copyright © 2014, WeatherForYou.com LLC. All rights reserved.